AFR25WK LIRQ-LFPG

Flight info

Callsign AFR25WK
Flight time 1h 19m
Altitude 34000
Route BIBNO DCT BEROK DCT GOLAS DCT AOSTA DCT ORSUD DCT MOLUS DCT UNKIR DCT GIVRI DCT TINIL
Aircraft A319/M-SDE3FGHIRWY/LB1

Departure

Time 2026-05-06 16:11
Airport Florence Airport, Peretola (LIRQ)

Arrival

Time 2026-05-06 17:30
Airport Charles de Gaulle International Airport (LFPG)
Time Latitude Longitude Altitude Speed Heading
2026-05-06 16:01 43.80322 11.20088 126 ft 0 kts 130°
2026-05-06 16:03 43.80323 11.20088 126 ft 1 kts 130°
2026-05-06 16:03 43.80337 11.20063 121 ft 4 kts 131°
2026-05-06 16:03 43.80357 11.20041 123 ft 4 kts 167°
2026-05-06 16:04 43.80378 11.20045 123 ft 2 kts 222°
2026-05-06 16:04 43.80379 11.20046 124 ft 0 kts 222°
2026-05-06 16:05 43.80379 11.20045 124 ft 0 kts 222°
2026-05-06 16:05 43.80375 11.20040 123 ft 1 kts 223°
2026-05-06 16:06 43.80366 11.20025 126 ft 3 kts 236°
2026-05-06 16:06 43.80355 11.19993 129 ft 5 kts 254°
2026-05-06 16:06 43.80367 11.19954 131 ft 5 kts 310°
2026-05-06 16:06 43.80398 11.19913 132 ft 9 kts 317°
2026-05-06 16:07 43.80471 11.19824 126 ft 17 kts 320°
2026-05-06 16:07 43.80572 11.19849 127 ft 16 kts 41°
2026-05-06 16:07 43.80644 11.19955 132 ft 15 kts 48°
2026-05-06 16:07 43.80711 11.20065 132 ft 15 kts 48°
2026-05-06 16:08 43.80782 11.20170 133 ft 16 kts 46°
2026-05-06 16:08 43.80869 11.20302 129 ft 20 kts 48°
2026-05-06 16:08 43.80965 11.20447 128 ft 21 kts 48°
2026-05-06 16:08 43.81063 11.20601 125 ft 21 kts 49°
2026-05-06 16:09 43.81156 11.20744 129 ft 20 kts 48°
2026-05-06 16:09 43.81244 11.20883 133 ft 18 kts 48°
2026-05-06 16:09 43.81324 11.21006 133 ft 17 kts 48°
2026-05-06 16:09 43.81404 11.21132 133 ft 17 kts 50°
2026-05-06 16:10 43.81473 11.21262 132 ft 17 kts 70°
2026-05-06 16:10 43.81518 11.21315 136 ft 6 kts 285°
2026-05-06 16:10 43.81501 11.21276 133 ft 0 kts 228°
2026-05-06 16:10 43.81481 11.21245 132 ft 27 kts 229°
2026-05-06 16:11 43.81157 11.20741 129 ft 110 kts 227°
2026-05-06 16:11 43.80519 11.19770 357 ft 149 kts 243°
2026-05-06 16:11 43.79859 11.18689 1085 ft 150 kts 245°
2026-05-06 16:11 43.79759 11.17256 1701 ft 159 kts 291°
2026-05-06 16:12 43.80406 11.16006 2501 ft 159 kts 301°
2026-05-06 16:12 43.80752 11.14611 3166 ft 152 kts 275°
2026-05-06 16:12 43.80837 11.13115 3605 ft 164 kts 270°
2026-05-06 16:12 43.80893 11.11430 3874 ft 187 kts 270°
2026-05-06 16:13 43.80957 11.09515 4261 ft 206 kts 270°
2026-05-06 16:13 43.81037 11.07515 5031 ft 209 kts 270°
2026-05-06 16:13 43.81128 11.05484 5739 ft 215 kts 270°
2026-05-06 16:13 43.81291 11.03412 6380 ft 220 kts 281°
2026-05-06 16:14 43.82195 11.01655 7032 ft 238 kts 321°
2026-05-06 16:14 43.83823 11.01013 7717 ft 256 kts
2026-05-06 16:14 43.85594 11.01503 8430 ft 262 kts
2026-05-06 16:14 43.87401 11.01552 9110 ft 260 kts 343°
2026-05-06 16:15 43.89098 11.00760 9851 ft 259 kts 334°
2026-05-06 16:15 43.90839 10.99995 10500 ft 266 kts 337°
2026-05-06 16:15 43.92707 10.99627 11125 ft 280 kts 355°
2026-05-06 16:15 43.94749 10.99804 11391 ft 306 kts 359°
2026-05-06 16:16 43.96958 10.99984 11661 ft 330 kts 359°
2026-05-06 16:16 43.99322 10.99979 11904 ft 349 kts 347°
2026-05-06 16:16 44.01646 10.98985 12363 ft 351 kts 327°
2026-05-06 16:16 44.03607 10.97041 13037 ft 344 kts 309°
2026-05-06 16:17 44.05029 10.94422 13775 ft 338 kts 293°
2026-05-06 16:17 44.06157 10.91550 14443 ft 339 kts 292°
2026-05-06 16:17 44.07285 10.88650 15106 ft 343 kts 292°
2026-05-06 16:17 44.08418 10.85718 15720 ft 346 kts 292°
2026-05-06 16:18 44.09563 10.82756 16336 ft 349 kts 293°
2026-05-06 16:18 44.10718 10.79769 17026 ft 352 kts 294°
2026-05-06 16:18 44.11882 10.76769 17765 ft 353 kts 294°
2026-05-06 16:18 44.13050 10.73755 18430 ft 355 kts 294°
2026-05-06 16:19 44.14222 10.70720 19019 ft 358 kts 294°
2026-05-06 16:19 44.15402 10.67657 19598 ft 360 kts 293°
2026-05-06 16:19 44.16396 10.64469 20151 ft 358 kts 283°
2026-05-06 16:19 44.16924 10.61096 20694 ft 356 kts 272°
2026-05-06 16:20 44.16992 10.57658 21234 ft 356 kts 265°
2026-05-06 16:20 44.16922 10.54202 21793 ft 358 kts 265°
2026-05-06 16:20 44.16855 10.50719 22344 ft 361 kts 265°
2026-05-06 16:20 44.16788 10.47211 22913 ft 364 kts 265°
2026-05-06 16:21 44.16722 10.43725 23442 ft 366 kts 265°
2026-05-06 16:21 44.16656 10.40121 23888 ft 369 kts 265°
2026-05-06 16:21 44.16841 10.36579 24328 ft 376 kts 275°
2026-05-06 16:21 44.17545 10.33036 24760 ft 385 kts 286°
2026-05-06 16:22 44.18748 10.29659 25189 ft 392 kts 293°
2026-05-06 16:22 44.20080 10.26330 25595 ft 394 kts 292°
2026-05-06 16:22 44.21415 10.22987 26004 ft 397 kts 292°
2026-05-06 16:22 44.22757 10.19615 26405 ft 399 kts 292°
2026-05-06 16:23 44.24104 10.16220 26806 ft 401 kts 291°
2026-05-06 16:23 44.25456 10.12802 27195 ft 404 kts 291°
2026-05-06 16:23 44.26816 10.09363 27581 ft 406 kts 291°
2026-05-06 16:23 44.28184 10.05907 27960 ft 408 kts 291°
2026-05-06 16:24 44.29559 10.02429 28342 ft 410 kts 291°
2026-05-06 16:24 44.30941 9.98928 28723 ft 413 kts 291°
2026-05-06 16:24 44.32332 9.95406 29083 ft 415 kts 291°
2026-05-06 16:24 44.33729 9.91863 29452 ft 418 kts 290°
2026-05-06 16:25 44.35132 9.88299 29797 ft 420 kts 290°
2026-05-06 16:25 44.36540 9.84714 30106 ft 422 kts 290°
2026-05-06 16:25 44.37956 9.81111 30446 ft 424 kts 290°
2026-05-06 16:25 44.39375 9.77491 30749 ft 425 kts 290°
2026-05-06 16:26 44.40796 9.73856 31024 ft 427 kts 290°
2026-05-06 16:26 44.42219 9.70202 31292 ft 429 kts 290°
2026-05-06 16:26 44.43643 9.66539 31653 ft 428 kts 290°
2026-05-06 16:26 44.45096 9.62901 32022 ft 431 kts 294°
2026-05-06 16:27 44.46885 9.59485 32392 ft 440 kts 302°
2026-05-06 16:27 44.48883 9.56251 32747 ft 440 kts 302°
2026-05-06 16:27 44.50881 9.53013 33142 ft 439 kts 302°
2026-05-06 16:27 44.52870 9.49777 33522 ft 438 kts 302°
2026-05-06 16:28 44.54851 9.46538 33813 ft 438 kts 302°
2026-05-06 16:28 44.56817 9.43315 33866 ft 430 kts 301°
2026-05-06 16:28 44.60649 9.37041 33866 ft 420 kts 301°
2026-05-06 16:29 44.64410 9.30854 33852 ft 418 kts 301°
2026-05-06 16:29 44.68176 9.24627 33841 ft 418 kts 301°
2026-05-06 16:30 44.71339 9.19406 33830 ft 418 kts 301°
2026-05-06 16:30 44.75724 9.12161 33870 ft 418 kts 301°
2026-05-06 16:31 44.79488 9.05930 33849 ft 417 kts 300°
2026-05-06 16:31 44.83238 8.99698 33843 ft 416 kts 300°
2026-05-06 16:32 44.86973 8.93467 33848 ft 417 kts 300°
2026-05-06 16:32 44.90711 8.87224 33827 ft 416 kts 300°
2026-05-06 16:33 44.94445 8.80975 33824 ft 416 kts 300°
2026-05-06 16:34 45.00047 8.71590 33835 ft 417 kts 300°
2026-05-06 16:34 45.03781 8.65327 33823 ft 416 kts 300°
2026-05-06 16:35 45.07502 8.59049 33830 ft 416 kts 300°
2026-05-06 16:35 45.11221 8.52760 33821 ft 417 kts 300°
2026-05-06 16:36 45.14316 8.47528 33894 ft 417 kts 300°
2026-05-06 16:36 45.18031 8.41224 33836 ft 417 kts 300°
2026-05-06 16:37 45.21754 8.34897 33828 ft 418 kts 300°
2026-05-06 16:37 45.25478 8.28557 33826 ft 418 kts 300°
2026-05-06 16:38 45.29197 8.22200 33846 ft 419 kts 300°
2026-05-06 16:38 45.32918 8.15830 33835 ft 419 kts 300°
2026-05-06 16:39 45.36642 8.09439 33835 ft 420 kts 300°
2026-05-06 16:39 45.40376 8.03016 33818 ft 422 kts 300°
2026-05-06 16:40 45.44116 7.96563 33816 ft 423 kts 300°
2026-05-06 16:40 45.47860 7.90096 33818 ft 423 kts 300°
2026-05-06 16:41 45.51605 7.83611 33836 ft 424 kts 300°
2026-05-06 16:41 45.55358 7.77109 33867 ft 425 kts 301°
2026-05-06 16:42 45.59102 7.70602 33849 ft 424 kts 301°
2026-05-06 16:42 45.62837 7.64094 33845 ft 424 kts 301°
2026-05-06 16:43 45.66574 7.57560 33845 ft 425 kts 301°
2026-05-06 16:43 45.70310 7.51025 33863 ft 425 kts 301°
2026-05-06 16:44 45.74044 7.44465 33875 ft 425 kts 301°
2026-05-06 16:44 45.77780 7.37884 33862 ft 426 kts 301°
2026-05-06 16:45 45.82167 7.31994 33855 ft 441 kts 318°
2026-05-06 16:45 45.87185 7.26922 33856 ft 441 kts 317°
2026-05-06 16:46 45.92202 7.21826 33869 ft 442 kts 317°
2026-05-06 16:46 45.97218 7.16714 33905 ft 442 kts 317°
2026-05-06 16:47 46.02224 7.11588 33941 ft 443 kts 318°
2026-05-06 16:47 46.07241 7.06430 33943 ft 443 kts 318°
2026-05-06 16:48 46.12259 7.01276 33943 ft 443 kts 318°
2026-05-06 16:48 46.17269 6.96121 33956 ft 442 kts 318°
2026-05-06 16:49 46.22267 6.90963 33940 ft 442 kts 318°
2026-05-06 16:49 46.27274 6.85775 33938 ft 443 kts 318°
2026-05-06 16:50 46.32274 6.80582 33957 ft 443 kts 318°
2026-05-06 16:50 46.37269 6.75381 33951 ft 442 kts 319°
2026-05-06 16:51 46.42214 6.70116 33933 ft 438 kts 313°
2026-05-06 16:51 46.46127 6.63558 33921 ft 425 kts 295°
2026-05-06 16:52 46.49043 6.56200 33912 ft 424 kts 294°
2026-05-06 16:52 46.51996 6.48732 33910 ft 424 kts 294°
2026-05-06 16:53 46.54916 6.41349 33925 ft 424 kts 295°
2026-05-06 16:53 46.57838 6.33900 33915 ft 424 kts 295°
2026-05-06 16:54 46.60756 6.26436 33914 ft 425 kts 295°
2026-05-06 16:54 46.63676 6.18966 33914 ft 425 kts 295°
2026-05-06 16:55 46.66592 6.11492 33916 ft 425 kts 295°
2026-05-06 16:55 46.69498 6.04008 33932 ft 425 kts 296°
2026-05-06 16:56 46.72400 5.96509 33922 ft 425 kts 296°
2026-05-06 16:56 46.75305 5.88998 33922 ft 425 kts 296°
2026-05-06 16:57 46.78204 5.81482 33919 ft 425 kts 296°
2026-05-06 16:57 46.81483 5.74291 33914 ft 430 kts 309°
2026-05-06 16:57 46.83693 5.71322 33597 ft 435 kts 319°
2026-05-06 16:58 46.86268 5.68923 33816 ft 443 kts 328°
2026-05-06 16:58 46.91744 5.64552 33919 ft 452 kts 328°
2026-05-06 16:59 46.97261 5.60112 33915 ft 452 kts 328°
2026-05-06 16:59 47.02774 5.55664 33919 ft 452 kts 328°
2026-05-06 17:00 47.08284 5.51219 33908 ft 452 kts 328°
2026-05-06 17:00 47.13782 5.46769 33904 ft 451 kts 328°
2026-05-06 17:01 47.19277 5.42301 33909 ft 451 kts 328°
2026-05-06 17:01 47.24769 5.37826 33931 ft 451 kts 328°
2026-05-06 17:02 47.30255 5.33355 33912 ft 451 kts 329°
2026-05-06 17:02 47.35738 5.28872 33898 ft 451 kts 329°
2026-05-06 17:03 47.41228 5.24391 33902 ft 451 kts 329°
2026-05-06 17:03 47.46732 5.19890 33904 ft 462 kts 329°
2026-05-06 17:04 47.52389 5.15237 33910 ft 467 kts 329°
2026-05-06 17:04 47.58056 5.10522 33909 ft 467 kts 326°
2026-05-06 17:05 47.63114 5.04582 33918 ft 464 kts 317°
2026-05-06 17:05 47.68036 4.98399 33909 ft 463 kts 317°
2026-05-06 17:06 47.72952 4.92213 33911 ft 463 kts 317°
2026-05-06 17:06 47.77862 4.86016 33911 ft 463 kts 317°
2026-05-06 17:07 47.82765 4.79792 33927 ft 463 kts 317°
2026-05-06 17:07 47.87664 4.73555 33920 ft 463 kts 317°
2026-05-06 17:08 47.92557 4.67308 33927 ft 463 kts 317°
2026-05-06 17:08 47.97450 4.61058 33933 ft 463 kts 317°
2026-05-06 17:09 48.02338 4.54788 33924 ft 463 kts 317°
2026-05-06 17:09 48.07214 4.48501 33917 ft 463 kts 317°
2026-05-06 17:10 48.12096 4.42203 33917 ft 463 kts 317°
2026-05-06 17:10 48.16949 4.35947 33723 ft 452 kts 317°
2026-05-06 17:10 48.19306 4.32910 33077 ft 442 kts 317°
2026-05-06 17:11 48.21616 4.29925 32391 ft 435 kts 316°
2026-05-06 17:11 48.23881 4.26981 31975 ft 427 kts 318°
2026-05-06 17:11 48.26066 4.24070 31499 ft 414 kts 314°
2026-05-06 17:11 48.27924 4.20840 30885 ft 406 kts 309°
2026-05-06 17:12 48.29706 4.17587 30229 ft 401 kts 309°
2026-05-06 17:12 48.31470 4.14360 29518 ft 398 kts 309°
2026-05-06 17:12 48.33218 4.11162 28796 ft 394 kts 309°
2026-05-06 17:12 48.34947 4.07998 28108 ft 389 kts 309°
2026-05-06 17:13 48.36655 4.04873 27430 ft 384 kts 309°
2026-05-06 17:13 48.38343 4.01790 26777 ft 379 kts 309°
2026-05-06 17:13 48.40007 3.98749 26111 ft 374 kts 309°
2026-05-06 17:13 48.41648 3.95744 25462 ft 369 kts 309°
2026-05-06 17:14 48.43268 3.92770 24802 ft 365 kts 310°
2026-05-06 17:14 48.44864 3.89843 24192 ft 360 kts 310°
2026-05-06 17:14 48.46437 3.86949 23594 ft 354 kts 310°
2026-05-06 17:14 48.47985 3.84095 22924 ft 349 kts 310°
2026-05-06 17:15 48.49510 3.81278 22266 ft 345 kts 309°
2026-05-06 17:15 48.50998 3.78530 21652 ft 341 kts 310°
2026-05-06 17:15 48.52487 3.75779 21036 ft 337 kts 309°
2026-05-06 17:15 48.53944 3.73032 20411 ft 334 kts 305°
2026-05-06 17:16 48.55208 3.70107 19830 ft 331 kts 303°
2026-05-06 17:16 48.56451 3.67203 19256 ft 328 kts 303°
2026-05-06 17:16 48.57688 3.64327 18702 ft 325 kts 303°
2026-05-06 17:16 48.58912 3.61484 18155 ft 322 kts 303°
2026-05-06 17:17 48.60129 3.58669 17526 ft 318 kts 303°
2026-05-06 17:17 48.61591 3.56201 16923 ft 314 kts 319°
2026-05-06 17:17 48.63401 3.54378 16346 ft 312 kts 329°
2026-05-06 17:17 48.65278 3.52757 15748 ft 310 kts 329°
2026-05-06 17:18 48.67143 3.51140 15192 ft 307 kts 329°
2026-05-06 17:18 48.68986 3.49537 14635 ft 305 kts 329°
2026-05-06 17:18 48.70815 3.47946 14109 ft 302 kts 328°
2026-05-06 17:18 48.72627 3.46368 13558 ft 300 kts 329°
2026-05-06 17:19 48.74429 3.44795 12967 ft 297 kts 329°
2026-05-06 17:19 48.76209 3.43233 12388 ft 294 kts 329°
2026-05-06 17:19 48.77971 3.41687 11830 ft 291 kts 329°
2026-05-06 17:19 48.79720 3.40177 11287 ft 288 kts 330°
2026-05-06 17:20 48.81463 3.38725 10738 ft 285 kts 331°
2026-05-06 17:20 48.83197 3.37305 10200 ft 281 kts 331°
2026-05-06 17:20 48.84335 3.36378 9835 ft 280 kts 332°
2026-05-06 17:20 48.86043 3.34984 9234 ft 277 kts 332°
2026-05-06 17:21 48.87730 3.33599 8625 ft 275 kts 331°
2026-05-06 17:21 48.89401 3.32221 8045 ft 271 kts 331°
2026-05-06 17:21 48.91049 3.30857 7481 ft 269 kts 331°
2026-05-06 17:21 48.92682 3.29503 6958 ft 266 kts 331°
2026-05-06 17:22 48.94293 3.28165 6403 ft 262 kts 331°
2026-05-06 17:22 48.95887 3.26837 5857 ft 260 kts 331°
2026-05-06 17:22 48.97464 3.25524 5298 ft 257 kts 331°
2026-05-06 17:22 48.99024 3.24227 4742 ft 255 kts 331°
2026-05-06 17:23 49.00474 3.22721 4193 ft 252 kts 312°
2026-05-06 17:23 49.01250 3.20367 3984 ft 254 kts 282°
2026-05-06 17:23 49.01389 3.17662 3965 ft 258 kts 273°
2026-05-06 17:23 49.01417 3.14925 3976 ft 260 kts 272°
2026-05-06 17:24 49.01431 3.12216 3972 ft 248 kts 272°
2026-05-06 17:24 49.01398 3.09691 3972 ft 229 kts 269°
2026-05-06 17:24 49.01298 3.07339 3965 ft 219 kts 268°
2026-05-06 17:24 49.01276 3.05048 3965 ft 214 kts 283°
2026-05-06 17:25 49.01626 3.02844 3969 ft 216 kts 279°
2026-05-06 17:25 49.01581 3.00555 3972 ft 217 kts 267°
2026-05-06 17:25 49.01443 2.98225 3982 ft 228 kts 267°
2026-05-06 17:25 49.01313 2.95768 3981 ft 240 kts 268°
2026-05-06 17:26 49.01185 2.93221 3980 ft 247 kts 268°
2026-05-06 17:26 49.01053 2.90606 3977 ft 248 kts 268°
2026-05-06 17:26 49.00921 2.87979 3891 ft 249 kts 268°
2026-05-06 17:26 49.00788 2.85351 3613 ft 248 kts 268°
2026-05-06 17:27 49.00655 2.82746 3289 ft 246 kts 268°
2026-05-06 17:27 49.00523 2.80166 2981 ft 242 kts 268°
2026-05-06 17:27 49.00393 2.77630 2659 ft 239 kts 268°
2026-05-06 17:27 49.00265 2.75138 2332 ft 231 kts 268°
2026-05-06 17:28 49.00142 2.72800 2030 ft 212 kts 269°
2026-05-06 17:28 49.00030 2.70651 1784 ft 195 kts 269°
2026-05-06 17:28 48.99927 2.68671 1503 ft 180 kts 269°
2026-05-06 17:28 48.99833 2.66875 1266 ft 160 kts 269°
2026-05-06 17:29 48.99751 2.65280 1017 ft 144 kts 270°
2026-05-06 17:29 48.99673 2.63813 776 ft 137 kts 269°
2026-05-06 17:29 48.99599 2.62345 678 ft 135 kts 269°
2026-05-06 17:29 48.99524 2.60877 484 ft 144 kts 268°
2026-05-06 17:30 48.99447 2.59442 354 ft 122 kts 266°
2026-05-06 17:30 48.99390 2.58370 353 ft 77 kts 264°
2026-05-06 17:30 48.99359 2.57813 353 ft 36 kts 266°
2026-05-06 17:30 48.99362 2.57437 351 ft 35 kts 281°
2026-05-06 17:31 48.99422 2.57092 354 ft 33 kts 285°
2026-05-06 17:31 48.99476 2.56758 354 ft 32 kts 273°
2026-05-06 17:31 48.99636 2.56623 360 ft 28 kts 355°
2026-05-06 17:31 48.99833 2.56598 354 ft 28 kts 358°
2026-05-06 17:32 48.99909 2.56392 354 ft 26 kts 266°
2026-05-06 17:32 48.99894 2.56115 354 ft 26 kts 263°
2026-05-06 17:32 48.99908 2.55855 356 ft 23 kts 283°
2026-05-06 17:32 48.99996 2.55669 357 ft 23 kts 343°
2026-05-06 17:33 49.00147 2.55602 354 ft 23 kts 343°
2026-05-06 17:33 49.00299 2.55537 362 ft 23 kts 345°
2026-05-06 17:33 49.00450 2.55469 354 ft 23 kts 344°
2026-05-06 17:33 49.00601 2.55409 354 ft 22 kts 343°
2026-05-06 17:34 49.00725 2.55444 359 ft 21 kts 70°
2026-05-06 17:34 49.00742 2.55665 357 ft 21 kts 82°
2026-05-06 17:34 49.00763 2.55890 354 ft 22 kts 79°
2026-05-06 17:34 49.00785 2.56122 354 ft 24 kts 83°
2026-05-06 17:35 49.00809 2.56378 361 ft 25 kts 82°
2026-05-06 17:35 49.00829 2.56637 354 ft 25 kts 85°
2026-05-06 17:35 49.00843 2.56898 354 ft 25 kts 85°
2026-05-06 17:36 49.00756 2.57325 354 ft 19 kts 84°
2026-05-06 17:36 49.00764 2.57457 354 ft 6 kts 85°
2026-05-06 17:36 49.00758 2.57475 354 ft 0 kts 148°
2026-05-06 17:37 49.00740 2.57464 362 ft 9 kts 230°
2026-05-06 17:37 49.00713 2.57442 356 ft 0 kts 203°
2026-05-06 17:37 49.00712 2.57441 356 ft 0 kts 206°